Weather History for KDVP - April, 2013

Change the Weather History Date:

Wednesday, April 10, 2013

  Actual Average (KOTG) Record (KOTG)
Temperature  
Mean Temperature 30 °F -  
Max Temperature 31 °F 50 °F 86 °F (1977)
Min Temperature 28 °F 31 °F 9 °F (1989)
Degree Days  
Heating Degree Days 36    
Moisture  
Dew Point 29 °F    
Average Humidity 98    
Maximum Humidity 100    
Minimum Humidity 91    
Precipitation  
Precipitation 0.04 in - - ()
Sea Level Pressure  
Sea Level Pressure 29.97 in    
Wind  
Wind Speed 4 mph (NE)    
Max Wind Speed 7 mph    
Max Gust Speed -    
Visibility 4 miles    
Events Snow    
Averages and records for this station are not official NWS values.
T = Trace of Precipitation, MM = Missing Value Source: NWS Daily Summary

Daily Weather History Graph

Daily Weather History Graph

Search for Another Location

Airport or City:

Trip Planner

Search our weather history database for the weather conditions in past years. The results will help you decide how hot, cold, wet, or windy it might be!

Date:

Astronomy

Apr. 10, 2013 Rise Set
Actual Time 6:48 AM CDT 8:01 PM CDT
Civil Twilight 6:18 AM CDT 8:31 PM CDT
Nautical Twilight 5:42 AM CDT 9:06 PM CDT
Astronomical Twilight 5:05 AM CDT 9:44 PM CDT
Moon 6:43 AM CDT (4/10) 8:40 PM CDT (4/10)
Length of Visible Light 14h 12m
Length of Day
13h 13m
New Moon, 0% of the Moon is Illuminated
Apr 10
New Moon
Apr 18
First Quarter
Apr 25
Full
May 2
Last Quarter
May 9
New

Hourly Weather History & Observations

Time (CDT) Temp. Windchill Dew Point Humidity Pressure Visibility Wind Dir Wind Speed Gust Speed Precip Events Conditions
12:15 AM 28.9 °F 21.9 °F 28.9 °F 100% 30.05 in 4.0 mi North 6.9 mph - N/A   Overcast
12:35 AM 29.1 °F 23.0 °F 28.9 °F 99% 30.08 in 2.5 mi North 5.8 mph - N/A Snow Light Snow
1:05 AM - - - N/A% - - North - - N/A   Unknown
1:16 AM 29.3 °F 23.2 °F 29.3 °F 100% 30.06 in 5.0 mi NNE 5.8 mph - N/A   Unknown
1:35 AM 29.8 °F 23.9 °F 30.0 °F 100% 30.05 in 7.0 mi NNE 5.8 mph - N/A   Overcast
1:55 AM 30.2 °F 25.4 °F 30.2 °F 100% 30.08 in 7.0 mi NNE 4.6 mph - N/A   Overcast
2:15 AM 30.2 °F 24.3 °F 30.2 °F 100% 30.09 in 10.0 mi NNE 5.8 mph - N/A   Overcast
2:55 AM 30.2 °F 24.3 °F 29.7 °F 98% 30.04 in 10.0 mi NNE 5.8 mph - N/A   Overcast
3:16 AM 29.7 °F 26.1 °F 29.3 °F 99% 30.06 in 5.0 mi NE 3.5 mph - N/A   Overcast
3:35 AM 29.3 °F 25.6 °F 29.1 °F 99% 30.07 in 5.0 mi NE 3.5 mph - N/A   Overcast
6:35 AM 28.4 °F 24.6 °F 28.2 °F 99% 29.99 in 5.0 mi NE 3.5 mph - N/A   Overcast
6:55 AM 28.4 °F 24.6 °F 27.5 °F 96% 29.99 in 7.0 mi NE 3.5 mph - N/A   Overcast
7:15 AM 28.4 °F 24.6 °F 27.5 °F 96% 30.01 in 7.0 mi NE 3.5 mph - N/A   Overcast
7:35 AM 28.4 °F 24.6 °F 27.1 °F 95% 30.02 in 10.0 mi NE 3.5 mph - N/A   Overcast
7:55 AM 28.2 °F 23.1 °F 27.3 °F 96% 29.98 in 7.0 mi NE 4.6 mph - N/A   Overcast
8:15 AM 28.2 °F 24.4 °F 27.3 °F 96% 29.98 in 10.0 mi NE 3.5 mph - N/A   Overcast
8:35 AM 28.4 °F 24.6 °F 27.3 °F 96% 29.98 in 10.0 mi NE 3.5 mph - N/A   Overcast
8:55 AM 28.4 °F 22.2 °F 27.0 °F 94% 29.95 in 10.0 mi NE 5.8 mph - N/A   Overcast
9:15 AM 28.8 °F - 27.0 °F 93% 30.00 in 10.0 mi Calm Calm - N/A   Overcast
9:35 AM 28.9 °F 25.2 °F 26.6 °F 91% 30.02 in 10.0 mi NE 3.5 mph - N/A   Overcast
9:55 AM 28.9 °F - 26.6 °F 91% 30.03 in 10.0 mi Calm Calm - N/A   Overcast
10:35 AM 28.8 °F 25.0 °F 27.5 °F 95% 30.02 in 3.0 mi NNE 3.5 mph - N/A   Overcast
10:55 AM 28.9 °F 25.2 °F 28.4 °F 98% 30.02 in 2.0 mi NNE 3.5 mph - N/A   Overcast
11:15 AM 29.1 °F - 28.4 °F 97% 30.04 in 2.0 mi Calm Calm - N/A   Overcast
11:35 AM 29.1 °F 24.1 °F 28.6 °F 98% 30.04 in 2.5 mi NNE 4.6 mph - N/A   Overcast
11:55 AM 29.3 °F - 28.9 °F 99% 30.03 in 2.0 mi Calm Calm - N/A   Overcast
12:15 PM 29.3 °F 25.6 °F 29.1 °F 99% 30.02 in 2.5 mi NNE 3.5 mph - 0.01 in   Overcast
12:33 PM 29.3 °F - 29.1 °F 99% 30.00 in 4.0 mi Calm Calm - 0.01 in   Overcast
1:15 PM 29.1 °F - 28.4 °F 97% 30.04 in 3.0 mi Calm Calm - N/A   Overcast
1:35 PM 29.3 °F - 28.9 °F 99% 30.04 in 2.5 mi Calm Calm - N/A Snow Light Snow
1:55 PM 29.1 °F - 28.4 °F 97% 30.03 in 2.0 mi Calm Calm - 0.01 in Snow Light Snow
2:15 PM 28.9 °F - 28.4 °F 98% 30.03 in 2.0 mi Calm Calm - N/A   Overcast
2:35 PM 28.9 °F 23.9 °F 28.4 °F 98% 30.02 in 1.2 mi NE 4.6 mph - 0.01 in   Overcast
2:55 PM 29.1 °F 25.4 °F 28.8 °F 99% 30.01 in 1.5 mi NE 3.5 mph - 0.01 in Snow Light Snow
3:15 PM 29.3 °F - 28.9 °F 99% 30.00 in 2.0 mi Calm Calm - N/A   Overcast
3:35 PM 29.5 °F - 29.1 °F 99% 30.00 in 3.0 mi Calm Calm - N/A   Overcast
3:55 PM 29.7 °F - 29.3 °F 99% 29.99 in 4.0 mi Calm Calm - N/A   Overcast
4:15 PM 29.7 °F 26.1 °F 29.3 °F 99% 29.98 in 3.0 mi NE 3.5 mph - N/A   Overcast
4:35 PM 30.0 °F 26.5 °F 29.8 °F 99% 29.98 in 2.5 mi NE 3.5 mph - N/A   Overcast
4:55 PM 30.0 °F - 29.8 °F 99% 29.98 in 2.5 mi Calm Calm - N/A   Overcast
5:16 PM 30.0 °F - 29.8 °F 99% 29.95 in 2.5 mi Calm Calm - N/A   Overcast
5:35 PM 30.0 °F - 29.8 °F 99% 29.94 in 2.0 mi Calm Calm - N/A Snow Light Snow
5:55 PM 29.8 °F 26.3 °F 29.8 °F 100% 29.93 in 1.8 mi NE 3.5 mph - N/A Snow Light Snow
6:15 PM 29.8 °F - 29.8 °F 100% 29.93 in 1.2 mi Calm Calm - N/A Snow Light Snow
6:35 PM 30.0 °F 25.2 °F 30.0 °F 100% 29.92 in 3.0 mi NE 4.6 mph - N/A   Overcast
6:55 PM 30.0 °F 25.2 °F 30.0 °F 100% 29.91 in 2.5 mi NE 4.6 mph - N/A   Overcast
7:15 PM 30.2 °F 26.7 °F 30.2 °F 100% 29.90 in 1.5 mi NE 3.5 mph - N/A Snow Light Snow
7:35 PM 30.2 °F 26.7 °F 30.2 °F 100% 29.88 in 1.5 mi NE 3.5 mph - N/A Snow Light Snow
7:55 PM 30.2 °F 26.7 °F 30.4 °F 100% 29.87 in 3.0 mi NE 3.5 mph - N/A   Overcast
8:15 PM 30.6 °F 27.1 °F 30.6 °F 100% 29.88 in 2.5 mi ENE 3.5 mph - N/A   Overcast
8:35 PM 30.6 °F 27.1 °F 30.6 °F 100% 29.88 in 3.0 mi ENE 3.5 mph - N/A Snow Light Snow
8:55 PM 30.7 °F - 30.9 °F 100% 29.87 in 3.0 mi Calm Calm - N/A   Overcast
9:15 PM - - - N/A% 29.86 in 3.0 mi ENE 3.5 mph - N/A   Overcast
9:35 PM 31.1 °F - 31.1 °F 100% 29.87 in 3.0 mi Calm Calm - N/A   Overcast
9:55 PM 31.1 °F 27.7 °F 31.3 °F 100% 29.86 in 3.0 mi NE 3.5 mph - N/A   Overcast
10:15 PM 31.1 °F - 31.5 °F 100% 29.86 in 3.0 mi Calm Calm - N/A   Overcast
10:35 PM 31.5 °F 28.1 °F 31.6 °F 100% 29.83 in 2.0 mi NE 3.5 mph - N/A   Overcast
10:55 PM 31.6 °F - 31.8 °F 100% 29.85 in 2.0 mi Calm Calm - N/A   Overcast
11:15 PM 31.8 °F - 32.0 °F 100% 29.85 in 1.8 mi Calm Calm - N/A Snow Light Snow
11:37 PM 31.8 °F 28.5 °F 32.0 °F 100% 29.84 in 1.5 mi NE 3.5 mph - N/A Snow Light Snow
11:55 PM 31.6 °F - 31.8 °F 100% 29.83 in 1.5 mi Calm Calm - 0.01 in Snow Light Snow